ARIANE 6 R/B, 60239

Orbit data source: Space-Track

ARIANE 6 R/B, 60239 is space debris in LEO originally from a launch on Tue, 09 Jul 2024 UTC via an ARIANE 62 launch vehicle from the French Guiana (FRGUI). Debris objects in space refer to the collection of defunct objects orbiting the Earth. Examples of debris include non-operational satellites, rocket bodies, and fragments generated from explosions, collisions, or faulty payload assembly.

Loading next visibility...
Identifier
60239, 2024-128E
Orbit
LEO
Country
Flag of FRFR
Related business
Manufacturer
ArianeGroup
Mission
Spacecraft
Bus & Motor
ARI6DP, Unknown motor
Mass
~7,711 kg wet, 1,600 kg dry
Launch date (UTC)
2024-07-09 (1 year ago)
Launch vehicle
ARIANE 62
Launch site
French Guiana (FRGUI)
Object type
Payload
Rocket body
Debris
Shape & HBR
Cyl + Trunc Cone, 7.0 m
Radar Cross Section
72.787 m², Large (>1 m²)

Expand to show TLE details & history
Last TLE update: 9 hours ago

TLE from 9 hours ago
0 ARIANE 6 R/B
1 60239U 24128E   25293.57100563  .00002385  00000-0  20327-3 0  9990
2 60239  62.0139 342.9960 0058659  86.6512 274.1286 14.99506964 70085
Epoch: 2025-10-20T13:42Z
TLE epoch observation values (Epoch: 2025-10-20T13:42:14.886Z)
Latitude
0.00002°
Longitude
108.16257°
Altitude
567.493 km
Speed
7.579 km/s
True Right ascension
22h 51m 59s
True Declination
0° 00' 00"
Sunlit
Object was in full shadow at epoch
Visualization orbit readout
Latitude
Unknown
Longitude
Unknown
Altitude
Unknown
Speed
Unknown
Apparent Right ascension
Unknown
Apparent Declination
Unknown
Sunlit
N/A
Visualization observer readout
Local Sidereal Time
18:02:59
Azimuth
Unknown
Elevation
Unknown
Doppler factor
Unknown
Orbital elements
Apogee altitude
608.089 km
Perigee altitude
526.606 km
Semi-major axis
6,945.484 km
Eccentricity
0.00587
Inclination
62.0139°
RAAN
342.996°
Arg. of periapsis
86.6512°
True anomaly
273.45782°
Mean anomaly
274.1286°
Eccentric anomaly
273.79324°
Mean motion
3.74964 °/min
Orbital period
96.01 mins
BSTAR
0.00020327
Loading maneuver chart data...
Computing Atmospheric mass density...
Loading historical data...
Loading historical data...
Loading historical data...
Loading historical data...
Loading historical data...
Loading historical data...
Loading historical data...

Documentation

Showing up to 5 results
|